Regional Weather Roundup
Issued by NWS

Home | Current Version | Previous Version | Text Only | Print | Product List | Glossary Off
Versions: 1 2 3 4 5 6 7 8 9 10 11 12 13 14 15 16 17 18 19 20 21 22 23 24 25 26 27 28 29 30 31 32 33 34 35 36 37 38 39 40 41 42 43 44 45 46 47 48 49 50

000
ASUS45 KTFX 290604
RWRMT
MONTANA HOURLY WEATHER ROUNDUP
NATIONAL WEATHER SERVICE GREAT FALLS MT
1204 AM MDT SUN MAR 29 2015

NOTE: "FAIR" INDICATES FEW OR NO CLOUDS BELOW 12000 FEET WITH NO
SIGNIFICANT WEATHER AND/OR OBSTRUCTIONS TO VISIBILITY.

* THESE STATIONS ARE NOT UNDER NWS QUALITY CONTROL. THEY DO NOT
   REPORT WEATHER SUCH AS PRECIPITATION OR FOG.

MTZ001>007-043-290700-
WEST OF THE DIVIDE
CITY           SKY/WX    TMP DP  RH WIND       PRES   REMARKS
KALISPELL      CLOUDY    45  36  71 S6        30.25R
MISSOULA       MOCLDY    39  30  70 N6        30.32R WCI  35
BUTTE          PTCLDY    36  21  54 NW9       30.29S WCI  29
MULLAN PASS    CLOUDY    32  30  92 VRB3      30.28S
* ESSEX        N/A       37  36  96 E1         N/A
* LINCOLN      N/A       40  30  68 SW6G14     N/A   WCI  36
* LOOKOUT PASS N/A       39  34  82 NE1        N/A
* POLSON       N/A       43  34  71 NW4G9      N/A
* RONAN APT    MOCLDY    45  34  65 N/A        N/A
* SEELEY LAKE  N/A       37  33  85 N/A        N/A
* THOMP F APT  MOCLDY    36  12  37 NW3G21     N/A
$$

MTZ008-052>055-290700-
SOUTHWEST MONTANA
CITY           SKY/WX    TMP DP  RH WIND       PRES   REMARKS
BOZEMAN        PTCLDY    39  21  48 W6        30.27R WCI  35
DILLON         CLEAR     34  18  52 S9        30.29R WCI  27
* W YELLOWSTON CLEAR     28  18  66 N/A        N/A
* THREE FORKS  CLEAR     45  21  38 W11G17     N/A
* TWIN BRIDGES CLEAR     39  16  39 N/A        N/A
* BOULDER HILL N/A       38  18  44 NE2G8      N/A
* HOMESTAKE PS N/A       32  20  61 SW4G11     N/A
* MONIDA PASS  N/A       32  15  49 NW23G28    N/A   WCI  19
* RAYNOLDS PAS N/A       28   2  32 SE2        N/A
* WHITEHALL    N/A       43  21  42 W12G17     N/A
* WISE RIVER   N/A       37  21  52 W14G23     N/A   WCI  28
$$

MTZ009>010-012-014-046-048-049-054-290700-
EAST SLOPES AND CENTRAL MONTANA
CITY           SKY/WX    TMP DP  RH WIND       PRES   REMARKS
CUT BANK       CLEAR     41  30  65 W22       30.08S
GREAT FALLS    MOCLDY    43  27  53 SW13      30.15R
HELENA         FAIR      45  27  49 W9        30.23R
* DEARBORN     N/A       47  27  46 S9         N/A
* EAST GLACIER N/A       40  28  62 W16G26     N/A   WCI  32
* MONARCH      N/A       36  25  64 W12        N/A   WCI  28
* PENDROY      N/A       39  27  62 W11        N/A   WCI  32
* ROGERS PASS  N/A       36  28  73 E10G16     N/A   WCI  29
* SAINT MARY   N/A       41  29  62 S11G24     N/A
$$

MTZ011-013-016-021-035-040-045-047-050-051-290700-
NORTH CENTRAL MONTANA
CITY           SKY/WX    TMP DP  RH WIND       PRES   REMARKS
HAVRE          CLOUDY    45  39  80 W10       30.09R
LEWISTOWN      CLOUDY    41  36  82 SW10      30.14S
* N BAR RANCH  CLEAR     39  34  82 NW30G40   30.05R WCI  27
* MALTA APT    PTCLDY    45  36  71 W16G21     N/A
* CHESTER      N/A       40  34  79 SW4        N/A
* DENTON       N/A       40  37  89 SW8        N/A   WCI  35
* GEYSER       N/A       38  31  76 W12        N/A   WCI  30
* JUDITH GAP   N/A       36  35  96 NW8        N/A   WCI  30
* LOMA         N/A       47  33  58 W11        N/A
$$

MTZ017>020-022>027-061-062-290700-
NORTHEAST MONTANA
CITY           SKY/WX    TMP DP  RH WIND       PRES   REMARKS
GLASGOW        CLOUDY    45  37  74 NW28G44   29.95R
GLENDIVE       CLOUDY    43  39  86 W33G38    29.79R
JORDAN         CLOUDY    45  39  80 NW28G38   29.99R
SIDNEY         CLOUDY    45  39  80 NW29G40   29.75R
WOLF POINT     CLOUDY    45  39  80 NW22G29   29.88R
* BEAVER HILL  N/A       41  39  93 W26G41     N/A
* CIRCLE       N/A       44  41  89 NW22G31    N/A
* LINDSAY DVD  N/A       40  40 100 NW37G48    N/A   WCI  27
* NAVAJO       N/A       39  38  96 NW32G39    N/A   WCI  27
* SACO         N/A       43  39  86 W17G28     N/A
$$

MTZ028>042-056>058-290700-
SOUTHCENTRAL AND SOUTHEAST MONTANA
CITY           SKY/WX    TMP DP  RH WIND       PRES   REMARKS
BAKER          LGT RAIN  43  37  79 NW35G47   29.80R
BILLINGS       CLOUDY    46  28  50 NW14      30.14R
LIVINGSTON     CLOUDY    45  21  38 W14       30.22R
MILES CITY     LGT RAIN  41 N/A N/A NW26G35   29.94R
* LAUREL APT   MOCLDY    48  25  41 W8         N/A
* ROUNDUP APT  MOCLDY    45  30  56 W16G22     N/A
* ALZADA       N/A       46  24  42 W12        N/A
* HYSHAM       N/A       42  37  83 W18G24     N/A
* LAME DEER    N/A       38  35  89 W26G40     N/A   WCI  26
* REED POINT   N/A       50  22  33 W18G29     N/A
* ROSCOE HILL  N/A       44   8  23 W7G16      N/A
$$

REGIONAL REPORTS...DAKOTAS
CITY           SKY/WX    TMP DP  RH WIND       PRES   REMARKS
WILLISTON      LGT RAIN  43  37  79 N30G47    29.72R
DICKINSON      PTCLDY    46  36  68 W26G36    29.65F
CROSBY         CLOUDY    37  37 100 NW26G38   29.72R WCI  25
WATFORD CITY   LGT RAIN  43  41  93 N30G47    29.64R
BISMARCK       CLOUDY    50  41  71 W17       29.62S
GRAND FORKS    RAIN      41  36  82 S25G37    29.46F
FARGO          CLOUDY    45  30  56 S16       29.61F
BUFFALO SD     PTCLDY    48  30  50 NW40G55   29.74F
RAPID CITY     CLEAR     54  16  22 NW26G36   29.82R
$$

REGIONAL REPORTS...WYOMING/IDAHO/WASHINGTON
CITY           SKY/WX    TMP DP  RH WIND       PRES   REMARKS
GILLETTE       PTCLDY    46  18  33 NW30G40   29.99R
SHERIDAN       MOCLDY    50  19  29 NW35G48   30.08R
CODY           PTCLDY    46  12  25 W9        30.16R
YELLOWSTONE LA PTCLDY    27  12  53 W3        30.31R
SALMON         CLEAR     37  23  57 SE5       30.32S WCI  33
MULLAN PASS    CLOUDY    32  30  92 VRB3      30.28S
SAND POINT     PTCLDY    45  34  65 S5        30.27R
SPOKANE        CLEAR     45  36  71 S10       30.28R

$$




USA.gov is the U.S. government's official web portal to all federal, state and local government web resources and services.